Showing default

IRIDIUM 161, 43478

Orbit data source: Space-Track

IRIDIUM 161, 43478 is a payload satellite owned by Iridium (US) in LEO that was launched on Tue, 22 May 2018 UTC via an FALCON 9 launch vehicle from the Air Force Western Test Range (AFWTR). Payload-class satellites include a variety of spacecraft equipped with specific instruments for various scientific and technological missions. These include communications satellites like Starlink; space stations such as the ISS; scientific satellites like the Hubble; Earth observation satellites from companies like Planet Labs, Umbra, and HawkEye 360; GPS; miniature CubeSats for education and research; and military/defense satellites.

Loading next visibility...
Identifier
43478, 2018-047C
Orbit
LEO
Country
Flag of USUS
Related business
Manufacturer
OATK SSG Gilbert
Mission
Operational Commercial Communications
Bus & Motor
ELITEBUS, Unknown motor
Mass
860 kg wet, 700 kg dry
Launch date (UTC)
2018-05-22 (7 years ago)
Launch vehicle
FALCON 9
Launch site
Air Force Western Test Range (AFWTR)
Object type
Payload
Rocket body
Debris
Shape & HBR
Trap Box + 2 Pan, 4.7 m
Radar Cross Section
14.423 m², Large (>1 m²)

Expand to show TLE details & history
Last TLE update: 20 hours ago

TLE from 20 hours ago
0 IRIDIUM 161
1 43478U 18047C   25260.07483417  .00000335  00000-0  93687-4 0  9993
2 43478  86.4543 202.5431 0002160  87.6442 272.5006 14.43281834385742
Epoch: 2025-09-17T01:47Z
TLE epoch observation values (Epoch: 2025-09-17T01:47:45.672Z)
Latitude
-0.00003°
Longitude
179.3468°
Altitude
750.674 km
Speed
7.479 km/s
True Right ascension
13h 30m 10s
True Declination
0° 00' 00"
Sunlit
Object was in daylight at epoch
Visualization orbit readout
Latitude
Unknown
Longitude
Unknown
Altitude
Unknown
Speed
Unknown
Apparent Right ascension
Unknown
Apparent Declination
Unknown
Sunlit
N/A
Visualization observer readout
Local Sidereal Time
14:13:08
Azimuth
Unknown
Elevation
Unknown
Doppler factor
Unknown
Orbital elements
Apogee altitude
746.165 km
Perigee altitude
743.088 km
Semi-major axis
7,122.763 km
Eccentricity
0.00022
Inclination
86.4543°
RAAN
202.5431°
Arg. of periapsis
87.6442°
True anomaly
272.47587°
Mean anomaly
272.5006°
Eccentric anomaly
272.48824°
Mean motion
3.61053 °/min
Orbital period
99.71 mins
BSTAR
0.000093687
Loading maneuver chart data...
Computing Atmospheric mass density...
Loading historical data...
Loading historical data...
Loading historical data...
Loading historical data...
Loading historical data...
Loading historical data...
Loading historical data...

Documentation

Showing up to 5 results
|